Torna al catalogo

FENGYUN 1C DEB

AttivoPO
NORAD 30060·DEBRIS·🇨🇳 China

Lanciato May 10, 1999 da Taiyuan Satellite Launch Center

Loading…

Prossimi Passaggi (prossime 24 ore)

TLE

AggiornatoSource: Space-Track

Epoca: Sep 14, 2026, 19:35 UTC

1 30060U 99025PM  26257.81654359  .00000720  00000-0  91137-3 0  9990
2 30060  99.2945 109.4372 0343963 102.9888 274.4430 13.44419946959528

Traccia FENGYUN 1C DEB in tempo reale con AllMySat

Download on the App Store